Location: Red Rock Farm
(35.2100°N, 97.2200°W)
Time: 11:12:05
(UTC-05:00)

ISS - All Passes

Search period start: 01 August 2015 00:00
Search period end: 11 August 2015 00:00
Orbit: 401 x 403 km, 51.6° (Epoch: 01 August)

Date Brightness Start Highest point End Pass type
(mag) Time Alt. Az. Time Alt. Az. Time Alt. Az.
01 Aug - 04:28:19 10° NNW 04:31:21 35° NE 04:34:23 10° ESE visible
01 Aug - 06:05:19 10° W 06:07:36 17° SW 06:09:49 10° S visible
01 Aug - 21:05:07 10° SW 21:08:19 62° SE 21:11:32 10° NE visible
01 Aug - 22:43:01 10° WNW 22:45:02 15° NNW 22:47:00 10° N visible
02 Aug - 03:35:43 10° NNW 03:38:11 20° NNE 03:40:42 10° E visible
02 Aug - 05:11:41 10° WNW 05:14:44 37° SW 05:17:45 10° SSE visible
02 Aug - 20:12:37 10° S 20:15:24 27° SE 20:18:14 10° ENE daylight
02 Aug - 21:49:04 10° W 21:51:49 25° NNW 21:54:34 10° NNE visible
03 Aug - 02:43:26 10° N 02:44:56 13° NNE 02:46:30 10° NE night (unlit)
03 Aug - 04:18:31 10° NW 04:21:47 88° SW 04:25:03 10° SE night (unlit)
03 Aug - 19:21:03 10° SSE 19:22:32 13° SE 19:24:09 10° E daylight
03 Aug - 20:55:33 10° WSW 20:58:42 46° NW 21:01:51 10° NE visible
04 Aug - 03:25:38 10° NW 03:28:45 42° NE 03:31:52 10° ESE night (unlit)
04 Aug - 05:03:03 10° W 05:04:57 14° SW 05:06:43 10° SSW night (unlit)
04 Aug - 20:02:26 10° SW 20:05:40 78° SE 20:08:55 10° NE daylight
04 Aug - 21:40:45 10° WNW 21:42:28 13° NNW 21:44:09 10° N visible
05 Aug - 02:32:57 10° NNW 02:35:36 23° NNE 02:38:17 10° E night (unlit)
05 Aug - 04:09:09 10° WNW 04:12:03 30° SW 04:14:57 10° SSE night (unlit)
05 Aug - 19:09:46 10° SSW 19:12:43 33° SE 19:15:42 10° ENE daylight
05 Aug - 20:46:36 10° W 20:49:12 21° NNW 20:51:47 10° NNE daylight
06 Aug - 01:40:31 10° N 01:42:20 14° NNE 01:44:13 10° ENE night (unlit)
06 Aug - 03:15:52 10° NW 03:19:06 70° SW 03:22:20 10° SE night (unlit)
06 Aug - 18:17:49 10° SSE 18:19:49 16° SE 18:21:54 10° E daylight
06 Aug - 19:52:57 10° WSW 19:56:01 38° NW 19:59:06 10° NNE daylight
07 Aug - 02:22:53 10° NW 02:26:04 51° NE 02:29:15 10° ESE night (unlit)
07 Aug - 04:00:55 10° WSW 04:02:12 12° SW 04:03:21 10° SSW night (unlit)
07 Aug - 18:59:41 10° SW 19:02:56 84° NW 19:06:12 10° NE daylight
07 Aug - 20:38:28 10° NW 20:39:50 12° NNW 20:41:08 10° N daylight
08 Aug - 01:30:06 10° NNW 01:32:55 26° NE 01:35:45 10° E night (unlit)
08 Aug - 03:06:34 10° WNW 03:09:18 24° SW 03:11:59 10° S night (unlit)
08 Aug - 18:06:52 10° SSW 18:09:57 41° SE 18:13:02 10° ENE daylight
08 Aug - 19:44:06 10° WNW 19:46:31 19° NNW 19:48:54 10° NNE daylight
09 Aug - 00:37:34 10° N 00:39:39 16° NNE 00:41:48 10° ENE visible
09 Aug - 02:13:08 10° NW 02:16:20 55° SW 02:19:31 10° SSE night (unlit)
09 Aug - 17:14:38 10° S 17:17:00 19° SE 17:19:25 10° E daylight
09 Aug - 18:50:18 10° WSW 18:53:17 32° NW 18:56:15 10° NNE daylight
09 Aug - 23:45:44 10° NNE 23:46:17 10° NNE 23:46:55 10° NE visible
10 Aug - 01:20:03 10° NW 01:23:18 63° NE 01:26:31 10° ESE night (unlit)
10 Aug - 17:56:54 10° SW 18:00:09 68° NW 18:03:23 10° NE daylight
10 Aug - 19:36:15 10° NW 19:37:07 11° NNW 19:37:54 10° N daylight
